CZ-3B R/B (44338 NORAD) Tracking and Keplerian Element Data

This shows tracking and keplerian element data for the satellite.

Feedback or suggestion? Click here.




ElementValue
Catalog44338
NameCZ-3B R/B
Epoch Orbit48
Epoch Day195.61077986
Epoch Year2019
RAAN174.1935
Inclination28.5626
Eccentricity0.7233911
Argument of Perigee191.6666
Mean Anonmoly131.3305
Mean Motion2.39202412
Decay Rate0.00025584
L11 44338U 19035B 19195.61077986 .00025584 -87359-6 37872-3 0 9992
L22 44338 28.5626 174.1935 7233911 191.6666 131.3305 2.39202412 487

Live tracking and technical data element details for CZ-3B R/B (NORAD 44338). CZ-3B R/B can be tracked NOW for your location showing map with azimuth and elevation plus other details from your city location.

Track the satellite on the map from your city or location and see movement details for azimuth, elevation, latitude, longitude, range, height, and movement on the map or in text.







IsCatalogInMostPopularTable: catalog: 44338, numindb: 3
Update: records affected: 1



GetName: 44338 CZ-3B R/B

Hit Count: updated at: Sun, 21 Jul 2019 21:04:18 GMT